North Platte, NE

7:07 PM CST on February 24, 2017 (GMT -0600)
North Platte Regional-Bird

Weather History for KLBF - April, 2013

Change the Weather History Date:

Wednesday, April 10, 2013

  Actual Average Record
Temperature  
Mean Temperature 23 °F 46 °F  
Max Temperature 26 °F 60 °F 90 °F (1977)
Min Temperature 19 °F 31 °F 12 °F (1973)
Degree Days  
Heating Degree Days 42 19  
Month to date heating degree days 214 208  
Since 1 July heating degree days 6047 6073  
Cooling Degree Days 0 0  
Month to date cooling degree days 0 0  
Year to date cooling degree days 0 0  
Moisture  
Dew Point 17 °F    
Average Humidity 79    
Maximum Humidity 84    
Minimum Humidity 73    
Precipitation  
Precipitation 0.02 in 0.07 in 1.41 in (1930)
Month to date precipitation 1.03 0.58  
Year to date precipitation 2.80 2.47  
Snow  
Snow 0.20 in 0.20 in 6.60 in (2008)
Month to date snowfall 0.9 1.5  
Since 1 July snowfall 23.5 26.8  
Snow Depth 1.00 in    
Sea Level Pressure  
Sea Level Pressure 30.09 in    
Wind  
Wind Speed 15 mph (NNW)    
Max Wind Speed 24 mph    
Max Gust Speed 32 mph    
Visibility 7 miles    
Events Rain , Snow    
T = Trace of Precipitation, MM = Missing Value Source: NWS Daily Summary

Daily Weather History Graph

Daily Weather History Graph

Search for Another Location

Airport or City:

Trip Planner

Search our weather history database for the weather conditions in past years. The results will help you decide how hot, cold, wet, or windy it might be!

Date:

Astronomy

Apr. 10, 2013 Rise Set
Actual Time 7:10 AM CDT 8:17 PM CDT
Civil Twilight 6:42 AM CDT 8:46 PM CDT
Nautical Twilight 6:08 AM CDT 9:19 PM CDT
Astronomical Twilight 5:33 AM CDT 9:55 PM CDT
Moon 7:07 AM CDT (4/10) 8:55 PM CDT (4/10)
Length of Visible Light 14h 03m
Length of Day
13h 06m
New Moon, 0% of the Moon is Illuminated
Apr 10
New Moon
Apr 18
First Quarter
Apr 25
Full
May 2
Last Quarter
May 9
New

Hourly Weather History & Observations

Time (CDT) Temp. Windchill Dew Point Humidity Pressure Visibility Wind Dir Wind Speed Gust Speed Precip Events Conditions
12:11 AM 19.4 °F 5.0 °F 14.0 °F 80% 30.11 in 1.8 mi NNW 16.1 mph 24.2 mph 0.00 in Snow Light Snow
12:26 AM 19.4 °F 5.5 °F 14.0 °F 80% 30.12 in 2.0 mi NNW 15.0 mph 23.0 mph 0.00 in Snow Light Snow
12:39 AM 19.4 °F 5.0 °F 14.0 °F 80% 30.10 in 2.5 mi NNW 16.1 mph 24.2 mph 0.00 in Snow Light Snow
12:43 AM 19.4 °F 4.5 °F 14.0 °F 80% 30.10 in 3.0 mi NNW 17.3 mph - 0.00 in Snow Light Snow
12:53 AM 19.0 °F 4.5 °F 14.0 °F 81% 30.24 in 4.0 mi NNW 16.1 mph - 0.00 in Snow Light Snow
1:53 AM 19.9 °F 5.2 °F 14.0 °F 78% 30.24 in 9.0 mi NNW 17.3 mph 25.3 mph 0.00 in Snow Light Snow
2:53 AM 19.9 °F 6.2 °F 14.0 °F 78% 30.19 in 9.0 mi NNW 15.0 mph 26.5 mph 0.00 in Snow Light Snow
3:53 AM 19.9 °F 6.2 °F 14.0 °F 78% 30.16 in 9.0 mi NNW 15.0 mph 24.2 mph 0.00 in Snow Light Snow
4:53 AM 19.9 °F 6.2 °F 14.0 °F 78% 30.19 in 10.0 mi North 15.0 mph 21.9 mph 0.00 in   Overcast
5:53 AM 19.9 °F 6.2 °F 14.0 °F 78% 30.15 in 10.0 mi NNW 15.0 mph 25.3 mph 0.00 in   Overcast
6:53 AM 19.9 °F 7.3 °F 12.9 °F 74% 30.20 in 10.0 mi NNW 12.7 mph 23.0 mph 0.00 in   Overcast
7:53 AM 19.9 °F 5.7 °F 12.9 °F 74% 30.20 in 10.0 mi NNW 16.1 mph 21.9 mph 0.00 in   Overcast
8:53 AM 19.9 °F 4.8 °F 14.0 °F 78% 30.19 in 10.0 mi NNW 18.4 mph 26.5 mph 0.00 in Snow Light Snow
9:53 AM 21.0 °F 5.7 °F 15.1 °F 78% 30.17 in 9.0 mi NNW 19.6 mph 28.8 mph 0.00 in   Overcast
10:45 AM 21.2 °F 6.4 °F 15.8 °F 80% 30.07 in 10.0 mi NNW 18.4 mph 26.5 mph 0.00 in Rain Light Freezing Rain
10:53 AM 21.9 °F 7.8 °F 16.0 °F 78% 30.19 in 10.0 mi NNW 17.3 mph 25.3 mph 0.00 in Rain Light Freezing Rain
11:00 AM 21.2 °F 7.3 °F 15.8 °F 80% 30.08 in 9.0 mi NNW 16.1 mph 24.2 mph 0.00 in Snow Light Snow
11:53 AM 23.0 °F 9.2 °F 16.0 °F 74% 30.18 in 9.0 mi North 17.3 mph 26.5 mph 0.00 in Snow Light Snow
12:08 PM 23.0 °F 8.0 °F 15.8 °F 74% 30.07 in 10.0 mi NNW 20.7 mph 26.5 mph 0.00 in Rain Light Freezing Rain
12:21 PM 23.0 °F 8.3 °F 15.8 °F 74% 30.07 in 9.0 mi NNW 19.6 mph 25.3 mph 0.00 in Snow Light Snow
12:37 PM 23.0 °F 8.0 °F 17.6 °F 80% 30.05 in 10.0 mi NNW 20.7 mph 27.6 mph 0.00 in Rain Light Freezing Rain
12:53 PM 24.1 °F 9.0 °F 17.1 °F 75% 30.16 in 9.0 mi NNW 21.9 mph 26.5 mph 0.00 in   Overcast
1:53 PM 25.0 °F 11.3 °F 18.0 °F 75% 30.14 in 9.0 mi North 18.4 mph 24.2 mph 0.00 in   Overcast
2:53 PM 25.0 °F 13.1 °F 18.0 °F 75% 30.13 in 10.0 mi North 13.8 mph 24.2 mph 0.00 in   Overcast
3:53 PM 26.1 °F 13.6 °F 19.0 °F 75% 30.10 in 10.0 mi North 16.1 mph 23.0 mph 0.00 in Snow Light Snow
4:13 PM 26.6 °F 13.8 °F 19.4 °F 74% 29.99 in 10.0 mi North 17.3 mph 24.2 mph 0.00 in Rain Light Freezing Rain
4:25 PM 26.6 °F 13.4 °F 19.4 °F 74% 29.98 in 9.0 mi North 18.4 mph 24.2 mph 0.00 in Snow Light Snow
4:53 PM 26.1 °F 13.1 °F 19.0 °F 75% 30.08 in 9.0 mi North 17.3 mph - 0.00 in Snow Light Snow
5:13 PM 26.6 °F 15.7 °F 19.4 °F 74% 29.97 in 10.0 mi NNW 12.7 mph - 0.00 in Rain Light Freezing Rain
5:28 PM 26.6 °F 13.4 °F 17.6 °F 69% 29.97 in 9.0 mi NNW 18.4 mph 24.2 mph 0.00 in Snow Light Snow
5:53 PM 26.1 °F 13.1 °F 19.0 °F 75% 30.06 in 7.0 mi NNW 17.3 mph 23.0 mph 0.00 in Snow Light Snow
6:53 PM 26.1 °F 13.6 °F 19.0 °F 75% 30.06 in 5.0 mi NNW 16.1 mph 23.0 mph 0.00 in Snow Light Snow
7:53 PM 25.0 °F 14.2 °F 19.0 °F 78% 30.06 in 7.0 mi NNW 11.5 mph - 0.00 in Snow Light Snow
8:09 PM 24.8 °F 13.4 °F 17.6 °F 74% 29.95 in 7.0 mi NNW 12.7 mph - 0.00 in Snow Light Snow
8:53 PM 24.1 °F 12.5 °F 19.0 °F 81% 30.06 in 9.0 mi NW 12.7 mph - 0.00 in Snow Light Snow
9:15 PM 23.0 °F 9.6 °F 17.6 °F 80% 29.95 in 2.5 mi NNW 16.1 mph 23.0 mph 0.00 in Snow Light Snow
9:21 PM 23.0 °F 10.6 °F 19.4 °F 86% 29.96 in 1.2 mi NNW 13.8 mph - 0.00 in Snow Light Snow
9:42 PM 23.0 °F 11.7 °F 19.4 °F 86% 29.96 in 2.0 mi NW 11.5 mph - 0.01 in Snow Light Snow
9:53 PM 24.1 °F 13.1 °F 19.9 °F 84% 30.06 in 2.5 mi NW 11.5 mph - 0.01 in Snow Light Snow
10:03 PM 24.8 °F 11.9 °F 19.4 °F 80% 29.96 in 3.0 mi NNW 16.1 mph 23.0 mph 0.01 in Snow Light Snow
10:53 PM 23.0 °F 11.1 °F 17.1 °F 78% 30.06 in 9.0 mi NW 12.7 mph - 0.01 in Snow Light Snow
11:05 PM 21.2 °F 10.1 °F 17.6 °F 86% 29.95 in 9.0 mi NW 10.4 mph - N/A Snow Light Snow
11:24 PM 21.2 °F 10.1 °F 17.6 °F 86% 29.94 in 9.0 mi NW 10.4 mph - 0.00 in Snow Light Snow
11:53 PM 21.9 °F 11.0 °F 17.1 °F 82% 30.04 in 4.0 mi NW 10.4 mph - 0.00 in Snow Light Snow